Lander, WY

5:12 AM MDT on May 27, 2017 (GMT -0600)
Hunt

Weather History for KLND - January, 2012

Change the Weather History Date:

Friday, January 20, 2012

  Actual Average Record
Temperature  
Mean Temperature 39 °F 22 °F  
Max Temperature 46 °F 33 °F 55 °F (1915)
Min Temperature 32 °F 10 °F -26 °F (1922)
Degree Days  
Heating Degree Days 26 43  
Month to date heating degree days 788 869  
Since 1 July heating degree days 3854 4115  
Cooling Degree Days 0 0  
Month to date cooling degree days 0 0  
Year to date cooling degree days 0 0  
Moisture  
Dew Point 21 °F    
Average Humidity 47    
Maximum Humidity 61    
Minimum Humidity 33    
Precipitation  
Precipitation 0.00 in 0.01 in 0.73 in (1962)
Month to date precipitation 0.24 0.27  
Year to date precipitation 0.24 0.27  
Snow  
Snow 0.00 in 0.20 in - ()
Month to date snowfall 4.4 4.9  
Since 1 July snowfall 33.5 40.6  
Snow Depth 0.00 in    
Sea Level Pressure  
Sea Level Pressure 29.68 in    
Wind  
Wind Speed 9 mph (West)    
Max Wind Speed 32 mph    
Max Gust Speed 46 mph    
Visibility 10 miles    
Events      
T = Trace of Precipitation, MM = Missing Value Source: NWS Daily Summary

Daily Weather History Graph

Daily Weather History Graph

Search for Another Location

Airport or City:

Trip Planner

Search our weather history database for the weather conditions in past years. The results will help you decide how hot, cold, wet, or windy it might be!

Date:

Astronomy

Jan. 20, 2012 Rise Set
Actual Time 7:40 AM MST 5:11 PM MST
Civil Twilight 7:09 AM MST 5:42 PM MST
Nautical Twilight 6:34 AM MST 6:17 PM MST
Astronomical Twilight 6:00 AM MST 6:51 PM MST
Moon 5:22 AM MST (1/20) 2:45 PM MST (1/20)
Length of Visible Light 10h 33m
Length of Day
9h 31m
Waning Crescent, 8% of the Moon is Illuminated
Jan 20
Waning Crescent
Jan 23
New
Jan 30
First Quarter
Feb 7
Full
Feb 14
Last Quarter

Hourly Weather History & Observations

Time (MST) Temp. Windchill Dew Point Humidity Pressure Visibility Wind Dir Wind Speed Gust Speed Precip Events Conditions
12:31 AM 44.6 °F 37.2 °F 21.2 °F 39% 29.57 in 10.0 mi NNW 17.3 mph 27.6 mph N/A   Clear
12:45 AM 44.6 °F 38.1 °F 21.2 °F 39% 29.58 in 10.0 mi NNW 13.8 mph 26.5 mph N/A   Clear
12:53 AM 43.0 °F 36.4 °F 23.0 °F 45% 29.51 in 10.0 mi NNW 12.7 mph - N/A   Clear
1:53 AM 41.0 °F 35.8 °F 21.0 °F 45% 29.55 in 10.0 mi North 8.1 mph - N/A   Clear
2:53 AM 42.1 °F 36.6 °F 21.9 °F 45% 29.56 in 10.0 mi SW 9.2 mph 23.0 mph N/A   Clear
3:53 AM 43.0 °F 40.3 °F 19.9 °F 40% 29.57 in 10.0 mi Variable 4.6 mph - N/A   Clear
4:53 AM 41.0 °F 38.0 °F 21.0 °F 45% 29.58 in 10.0 mi North 4.6 mph - N/A   Clear
5:53 AM 42.1 °F 35.7 °F 19.9 °F 41% 29.56 in 10.0 mi WNW 11.5 mph 19.6 mph N/A   Clear
6:53 AM 44.1 °F 35.4 °F 18.0 °F 35% 29.57 in 10.0 mi WNW 21.9 mph 36.8 mph N/A   Clear
7:08 AM 42.8 °F 34.3 °F 19.4 °F 39% 29.64 in 10.0 mi North 19.6 mph 28.8 mph N/A   Clear
7:19 AM 39.2 °F 30.5 °F 19.4 °F 45% 29.66 in 10.0 mi NNE 16.1 mph 28.8 mph N/A   Clear
7:53 AM 37.0 °F 28.5 °F 21.0 °F 52% 29.65 in 10.0 mi NE 13.8 mph 17.3 mph N/A   Clear
8:53 AM 36.0 °F 29.6 °F 23.0 °F 59% 29.71 in 10.0 mi SSE 8.1 mph - N/A   Clear
9:53 AM 37.9 °F 33.5 °F 23.0 °F 55% 29.75 in 10.0 mi SSE 5.8 mph - N/A   Clear
10:53 AM - - - N/A% 29.82 in - North - - N/A   Unknown
11:53 AM 44.1 °F 40.8 °F 25.0 °F 47% 29.77 in 10.0 mi SSE 5.8 mph - N/A   Clear
12:53 PM 46.0 °F 41.4 °F 26.1 °F 46% 29.76 in 10.0 mi SSE 9.2 mph - N/A   Clear
1:53 PM 46.0 °F 40.6 °F 26.1 °F 46% 29.75 in 10.0 mi SSE 11.5 mph - N/A   Clear
2:53 PM 45.0 °F 41.2 °F 27.0 °F 49% 29.76 in 10.0 mi South 6.9 mph - N/A   Clear
3:53 PM 43.0 °F 35.7 °F 19.0 °F 38% 29.77 in 10.0 mi West 15.0 mph - N/A   Clear
4:53 PM 42.1 °F 35.2 °F 19.0 °F 40% 29.79 in 10.0 mi West 12.7 mph - N/A   Clear
5:53 PM 39.9 °F 35.1 °F 19.0 °F 43% 29.81 in 10.0 mi SW 6.9 mph - N/A   Clear
6:53 PM 39.0 °F 34.8 °F 21.0 °F 49% 29.80 in 10.0 mi SW 5.8 mph - N/A   Partly Cloudy
7:53 PM 39.0 °F 30.3 °F 21.9 °F 50% 29.80 in 10.0 mi SW 16.1 mph 20.7 mph N/A   Clear
8:53 PM 37.0 °F 31.6 °F 19.9 °F 50% 29.78 in 10.0 mi SW 6.9 mph - N/A   Clear
9:53 PM 37.0 °F 31.6 °F 21.0 °F 52% 29.73 in 10.0 mi East 6.9 mph - N/A   Clear
10:53 PM 34.0 °F - 21.0 °F 59% 29.70 in 10.0 mi Calm Calm - N/A   Clear
11:53 PM 35.1 °F 27.4 °F 21.0 °F 57% 29.66 in 10.0 mi WNW 10.4 mph - N/A   Partly Cloudy